Decimomannu, Italy

6:37 PM CET on November 23, 2017 (GMT +0100)
Decimomannu Mil

Weather History for LIED - January, 2014

Change the Weather History Date:

Monday, January 13, 2014

  Actual Average Record
Temperature  
Mean Temperature 54 °F -  
Max Temperature 63 °F 57 °F 66 °F (2007)
Min Temperature 46 °F 40 °F 30 °F (2003)
Degree Days  
Heating Degree Days 10    
Growing Degree Days 4 (Base 50)    
Moisture  
Dew Point 50 °F    
Average Humidity 87    
Maximum Humidity 94    
Minimum Humidity 81    
Precipitation  
Precipitation 0.00 in 0.07 in - ()
Sea Level Pressure  
Sea Level Pressure 30.09 in    
Wind  
Wind Speed 3 mph ()    
Max Wind Speed 7 mph    
Max Gust Speed -    
Visibility 3.7 miles    
Events Fog    
Averages and records for this station are not official NWS values.
T = Trace of Precipitation, MM = Missing Value Source: Averaged Metar Reports

Daily Weather History Graph

Daily Weather History Graph

Search for Another Location

Airport or City:

Trip Planner

Search our weather history database for the weather conditions in past years. The results will help you decide how hot, cold, wet, or windy it might be!

Date:

Astronomy

Jan. 13, 2014 Rise Set
Actual Time 7:43 AM CET 5:22 PM CET
Civil Twilight 7:13 AM CET 5:52 PM CET
Nautical Twilight 6:40 AM CET 6:25 PM CET
Astronomical Twilight 6:08 AM CET 6:57 PM CET
Moon 3:24 PM CET (1/13) 5:18 AM CET (1/13)
Length of Visible Light 10h 38m
Length of Day
9h 39m
Waxing Gibbous, 93% of the Moon is Illuminated
Jan 13
Waxing Gibbous
Jan 16
Full
Jan 24
Last Quarter
Jan 30
New
Feb 6
First Quarter

Hourly Weather History & Observations

Time (CET) Temp. Windchill Dew Point Humidity Pressure Visibility Wind Dir Wind Speed Gust Speed Precip Events Conditions
12:55 AM 46.4 °F 44.3 °F 42.8 °F 87% 30.12 in 1.2 mi North 4.6 mph - N/A   Mostly Cloudy
1:00 AM 47 °F - 43 °F 82% 30.15 in 1 mi North 4.6 mph - -   Mist
1:55 AM 50.0 °F - 46.4 °F 87% 30.12 in 1.2 mi North 2.3 mph - N/A   Mostly Cloudy
2:55 AM 50.0 °F - 46.4 °F 87% 30.12 in 1.2 mi North 2.3 mph - N/A   Mostly Cloudy
3:55 AM 48.2 °F - 46.4 °F 93% 30.12 in 0.4 mi NNW 2.3 mph - N/A Fog Fog
4:00 AM 49 °F - 46 °F 83% 30.15 in 0 mi NNW 2.3 mph - - Fog Partial Fog
4:55 AM 48.2 °F - 44.6 °F 87% 30.12 in 0.4 mi WNW 4.6 mph - N/A Fog Fog
5:55 AM 48.2 °F - 44.6 °F 87% 30.12 in 0.4 mi East 2.3 mph - N/A Fog Fog
6:55 AM 48.2 °F - 44.6 °F 87% 30.12 in 0.1 mi NNE 2.3 mph - N/A Fog Fog
7:00 AM 47 °F - 44 °F 86% 30.15 in 0 mi NNE 2.3 mph - - Fog Partial Fog
7:55 AM 46.4 °F - 42.8 °F 87% 30.12 in 1.9 mi Calm Calm - N/A   Mostly Cloudy
8:31 AM 46.4 °F - 42.8 °F 87% 30.12 in 1.2 mi WNW 2.3 mph - N/A   Mostly Cloudy
8:55 AM 46.4 °F 44.3 °F 42.8 °F 87% 30.15 in 1.9 mi NW 4.6 mph - N/A   Mostly Cloudy
9:55 AM 50.0 °F - 46.4 °F 87% 30.15 in 0.5 mi WSW 2.3 mph - N/A Fog Fog
10:00 AM 50 °F - 46 °F 81% 30.16 in 2 mi NW 2.3 mph - - Fog Partial Fog
10:55 AM 55.4 °F - 51.8 °F 88% 30.12 in 6.2 mi Calm Calm - N/A   Partly Cloudy
11:55 AM 59.0 °F - 55.4 °F 88% 30.09 in 6.2 mi ESE 2.3 mph - N/A   Scattered Clouds
12:55 PM 59.0 °F - 55.4 °F 88% 30.09 in 6.2 mi NW 2.3 mph - N/A   Scattered Clouds
1:00 PM 59 °F - 55 °F 82% 30.12 in 7 mi NW 2.3 mph - -   Partly Cloudy
1:55 PM 60.8 °F - 57.2 °F 88% 30.06 in 6.2 mi Calm Calm - N/A   Mostly Cloudy
2:55 PM 59.0 °F - 55.4 °F 88% 30.04 in 6.2 mi Calm Calm - N/A   Mostly Cloudy
3:55 PM 59.0 °F - 53.6 °F 82% 30.04 in 6.2 mi SSE 6.9 mph - N/A   Mostly Cloudy
4:00 PM 58 °F - 54 °F 83% 30.06 in 7 mi SSE 6.9 mph - -   Mostly Cloudy
4:55 PM 59.0 °F - 55.4 °F 88% 30.04 in 6.2 mi WSW 4.6 mph - N/A   Mostly Cloudy
5:55 PM 57.2 °F - 55.4 °F 94% 30.04 in 6.2 mi West 6.9 mph - N/A   Mostly Cloudy
6:55 PM 57.2 °F - 55.4 °F 94% 30.04 in 5.0 mi West 4.6 mph - N/A   Mostly Cloudy
7:00 PM 57 °F - 54 °F 88% 30.05 in 5 mi West 4.6 mph - -   Mist
7:55 PM 57.2 °F - 55.4 °F 94% 30.04 in 5.0 mi WSW 3.5 mph - N/A   Mostly Cloudy
8:55 PM 55.4 °F - 53.6 °F 94% 30.04 in 5.0 mi West 4.6 mph - N/A   Mostly Cloudy
9:55 PM 53.6 °F - 50.0 °F 88% 30.01 in 6.2 mi West 5.8 mph - N/A   Scattered Clouds
10:00 PM 54 °F - 51 °F 85% 30.03 in 7 mi West 5.8 mph - -   Partly Cloudy
10:55 PM 53.6 °F - 50.0 °F 88% 30.01 in 6.2 mi West 1.2 mph - N/A   Scattered Clouds
11:55 PM 53.6 °F - 50.0 °F 88% 30.01 in 6.2 mi WNW 1.2 mph - N/A   Mostly Cloudy